[[{"header":{"parameterUnit":"m.s-1","parameterCategory":1,"la1":30.2991,"la2":30.254,"lo1":-89.0895,"lo2":-89.0444,"dy":0.0017,"dx":0.0017,"nx":28,"ny":28,"refTime":"2023-09-08T03:00:00:Z","depth":0,"parameterNumber":2,"parameterNumberName":"U-component_of_WINDS"},"data":[0,0,0,0,0,0,0,0,0,0,0,0,0,0,0,0,0,0,0,0,0,0,0,0,0,0,0,0,0,0,0,0,0,0,0,0,0,0,0,0,0,0,0,0,0,0,0,0,0,0,0,0,0,0,0,0,0,0,-0.6568,-0.6567,0,-0.6509,-0.6508,-0.6507,-0.6516,-0.6517,-0.6517,-0.6518,-0.6455,-0.6452,-0.645,0,0,0,0,0,0,0,0,0,0,0,0,0,-0.6684,-0.6681,-0.6568,-0.6567,-0.6567,-0.6509,-0.6508,-0.6507,-0.6515,-0.6517,-0.6518,-0.6519,-0.6456,-0.6453,-0.6449,0,0,0,0,0,0,0,0,0,0,0,0,0,-0.663,-0.6681,-0.6568,-0.6564,-0.6563,-0.6509,-0.6508,-0.6507,-0.6515,-0.6517,-0.6518,-0.6519,-0.6457,-0.6453,-0.6449,-0.6395,0,0,-0.6437,-0.6435,0,0,0,0,0,0,0,0,-0.6633,-0.6625,-0.6565,-0.6564,-0.6563,-0.6521,-0.6525,-0.6469,-0.6515,-0.6533,-0.6518,-0.652,-0.6475,-0.647,-0.6456,-0.6392,-0.6389,-0.6437,-0.6434,-0.6433,-0.6431,0,0,0,0,0,0,0,-0.6636,-0.6628,-0.6545,-0.6564,-0.6563,-0.6563,-0.6557,-0.6515,-0.6497,-0.6532,-0.6532,-0.6525,-0.6475,-0.6459,-0.6454,-0.6388,-0.6437,-0.6433,-0.6431,-0.6429,-0.6273,-0.6271,0,0,0,0,0,0,-0.6642,-0.6631,-0.6547,-0.6543,-0.6602,-0.656,-0.6553,-0.6533,-0.6497,-0.6493,-0.6524,-0.6526,-0.6465,-0.6459,-0.6452,-0.6383,-0.6433,-0.6429,-0.6427,-0.6275,-0.6272,-0.627,0,0,0,0,0,0,-0.6644,-0.6634,-0.6549,-0.6587,-0.6576,-0.6556,-0.6534,-0.6531,-0.6515,-0.6491,-0.6488,-0.6511,-0.6466,-0.6458,-0.6408,-0.6381,-0.6427,-0.6424,-0.6277,-0.6274,-0.6271,-0.6247,0,0,0,0,0,0,-0.6648,-0.6635,-0.6616,-0.6587,-0.6574,-0.6508,-0.6532,-0.6529,-0.6509,-0.6511,-0.6479,-0.6475,-0.6467,-0.6414,-0.6404,-0.6376,-0.6421,-0.6279,-0.6275,-0.6272,-0.625,-0.6243,-0.6238,0,0,0,0,0,-0.6652,-0.6612,-0.6615,-0.6605,-0.655,-0.6506,-0.6499,-0.6491,-0.6507,-0.6486,-0.647,-0.6476,-0.6386,-0.6409,-0.6398,-0.6369,-0.6281,-0.6276,-0.6273,-0.6252,-0.6245,-0.6238,0,0,0,0,0,0,-0.6638,-0.6608,-0.6611,-0.6561,-0.6536,-0.6508,-0.6481,-0.6484,-0.6454,-0.6457,-0.6448,-0.644,-0.6389,-0.6375,-0.6401,-0.6312,-0.6335,-0.6329,-0.6324,-0.6316,-0.631,-0.6314,-0.6417,0,0,0,0,0,-0.6629,-0.6598,-0.6573,-0.653,-0.6518,-0.6501,-0.6482,-0.6478,-0.6452,-0.6441,-0.6422,-0.6395,-0.636,-0.6338,-0.6305,-0.6248,-0.6239,-0.6222,-0.6216,-0.6212,-0.6205,-0.617,-0.6161,-0.6257,-0.6257,-0.6257,0,0,-0.661,-0.659,-0.657,-0.6527,-0.6507,-0.6472,-0.6493,-0.6456,-0.6429,-0.6436,-0.6387,-0.6372,-0.6341,-0.6287,-0.6262,-0.6272,-0.6177,-0.6207,-0.6203,-0.6199,-0.6165,-0.6155,-0.6147,-0.6254,-0.6255,-0.6255,0,0,-0.6557,-0.6541,-0.6501,-0.6481,-0.6451,-0.644,-0.6431,-0.6401,-0.6391,-0.6343,-0.6345,-0.6313,-0.6255,-0.6231,-0.6212,-0.6147,-0.615,-0.6137,-0.6105,-0.6071,-0.6063,-0.6056,-0.6029,-0.602,-0.6131,-0.6131,-0.6131,0,-0.6537,-0.6487,-0.6481,-0.6443,-0.6422,-0.6426,-0.6384,-0.6365,-0.6325,-0.631,-0.6323,-0.6247,-0.6227,-0.6165,-0.6149,-0.6135,-0.6121,-0.614,-0.6065,-0.6058,-0.6051,-0.6025,-0.6016,-0.613,-0.613,-0.613,-0.613,0,-0.6461,-0.6426,-0.6398,-0.6359,-0.6335,-0.6296,-0.6281,-0.6258,-0.6255,-0.6242,-0.6191,-0.6167,-0.6127,-0.6113,-0.6111,-0.6049,-0.6056,-0.6067,-0.609,-0.6041,-0.6016,-0.6006,-0.6127,-0.6128,-0.6128,-0.6129,0,0,-0.6398,-0.6355,-0.6345,-0.6325,-0.6291,-0.6263,-0.6222,-0.6184,-0.6162,-0.6134,-0.6097,-0.6046,-0.6055,-0.6033,-0.6028,-0.5998,-0.5943,-0.6012,-0.6011,-0.5997,-0.5869,-0.5859,-0.5848,-0.5946,-0.5944,-0.5943,-0.5871,0,-0.6339,-0.6268,-0.626,-0.6196,-0.6161,-0.6163,-0.6127,-0.6101,-0.6087,-0.6054,-0.6039,-0.6001,-0.6018,-0.6004,-0.5975,-0.5956,-0.5917,-0.5962,-0.5908,-0.5907,-0.5913,-0.5835,-0.5825,-0.5758,-0.5861,-0.586,-0.5859,0,-0.6261,-0.623,-0.6162,-0.613,-0.6115,-0.6083,-0.6044,-0.6014,-0.5983,-0.5975,-0.5949,-0.5947,-0.5902,-0.5928,-0.5864,-0.5894,-0.5872,-0.5859,-0.5856,-0.5849,-0.5878,-0.5822,-0.5737,-0.5725,-0.5844,-0.5845,-0.5846,0,-0.6217,-0.6159,-0.6109,-0.6093,-0.6055,-0.6032,-0.6015,-0.5986,-0.5962,-0.5928,-0.5912,-0.5874,-0.5852,-0.5822,-0.5808,-0.5829,-0.5743,-0.5769,-0.5732,-0.5732,-0.5712,-0.5713,-0.5618,-0.5703,-0.5704,-0.5704,-0.5704,0,-0.615,-0.6108,-0.6088,-0.6058,-0.6009,-0.5999,-0.5951,-0.5934,-0.5908,-0.5872,-0.5873,-0.5838,-0.5825,-0.5788,-0.5777,-0.5723,-0.5714,-0.5704,-0.5701,-0.5702,-0.5703,-0.5685,-0.5688,-0.5701,-0.5702,-0.5702,-0.5703,0,-0.6092,-0.6078,-0.6024,-0.5992,-0.5982,-0.5947,-0.5919,-0.5887,-0.5874,-0.5828,-0.5817,-0.5794,-0.5751,-0.5735,-0.5682,-0.5675,-0.561,-0.5613,-0.5621,-0.5619,-0.5581,-0.5584,-0.547,-0.5452,-0.5552,-0.5551,-0.5551,0,-0.6049,-0.6016,-0.598,-0.5956,-0.5938,-0.59,-0.5875,-0.5864,-0.5838,-0.5798,-0.5771,-0.5727,-0.5692,-0.5621,-0.5599,-0.5557,-0.5556,-0.5519,-0.555,-0.5551,-0.5551,-0.5552,-0.5546,-0.5513,-0.5512,-0.5511,-0.551,0,-0.5973,-0.5966,-0.5931,-0.5892,-0.5863,-0.5831,-0.5801,-0.5781,-0.5765,-0.5735,-0.569,-0.5663,-0.5607,-0.5563,-0.5519,-0.55,-0.55,-0.5501,-0.5489,-0.5488,-0.5492,-0.5485,-0.5601,-0.5503,-0.5504,-0.5504,-0.5505,-0.5505,-0.5918,-0.5887,-0.5856,-0.5815,-0.5791,-0.5762,-0.573,-0.5711,-0.5674,-0.5628,-0.5624,-0.5574,-0.5541,-0.5483,-0.5461,-0.542,-0.543,-0.5415,-0.541,-0.5405,-0.54,-0.5501,-0.5413,-0.5413,-0.5413,-0.5414,-0.5414,0,-0.5838,-0.5818,-0.5781,-0.5737,-0.5705,-0.571,-0.5676,-0.5647,-0.5604,-0.5573,-0.5538,-0.5484,-0.544,-0.5413,-0.5368,-0.5341,-0.5339,-0.5329,-0.5329,-0.5323,-0.5396,-0.5409,-0.533,-0.533,-0.533,-0.533,-0.533,-0.533,-0.5792,-0.5739,-0.5729,-0.5662,-0.5641,-0.5593,-0.5572,-0.5544,-0.5519,-0.5459,-0.5423,-0.5406,-0.5376,-0.5328,-0.5287,-0.528,-0.5261,-0.5249,-0.5242,-0.531,-0.5319,-0.5327,-0.5338,-0.5246,-0.5246,-0.5172,-0.5172,-0.5171]},{"header":{"parameterUnit":"m.s-1","parameterCategory":1,"la1":30.2991,"la2":30.254,"lo1":-89.0895,"lo2":-89.0444,"dy":0.0017,"dx":0.0017,"nx":28,"ny":28,"refTime":"2023-09-08T03:00:00:Z","depth":0,"parameterNumber":3,"parameterNumberName":"V-component_of_WINDS"},"data":[0,0,0,0,0,0,0,0,0,0,0,0,0,0,0,0,0,0,0,0,0,0,0,0,0,0,0,0,0,0,0,0,0,0,0,0,0,0,0,0,0,0,0,0,0,0,0,0,0,0,0,0,0,0,0,0,0,0,-1.7813,-1.7813,0,-1.7826,-1.7826,-1.7827,-1.7863,-1.7864,-1.7865,-1.7865,-1.7877,-1.7877,-1.7876,0,0,0,0,0,0,0,0,0,0,0,0,0,-1.7818,-1.7818,-1.7813,-1.7813,-1.7814,-1.7826,-1.7826,-1.7827,-1.7863,-1.7864,-1.7865,-1.7866,-1.7877,-1.7877,-1.7876,0,0,0,0,0,0,0,0,0,0,0,0,0,-1.7822,-1.7818,-1.7813,-1.7833,-1.7835,-1.7826,-1.7826,-1.7827,-1.7863,-1.7864,-1.7865,-1.7866,-1.7877,-1.7877,-1.7876,-1.7849,0,0,-1.7874,-1.7874,0,0,0,0,0,0,0,0,-1.7822,-1.7822,-1.783,-1.7832,-1.7834,-1.7844,-1.7833,-1.7834,-1.7862,-1.7852,-1.7865,-1.7867,-1.7865,-1.7866,-1.7865,-1.7849,-1.785,-1.7874,-1.7874,-1.7874,-1.7873,0,0,0,0,0,0,0,-1.7821,-1.7821,-1.7818,-1.783,-1.7832,-1.7841,-1.7843,-1.7833,-1.7852,-1.7853,-1.7856,-1.7857,-1.7866,-1.7866,-1.7866,-1.785,-1.7874,-1.7874,-1.7873,-1.7873,-1.7811,-1.7809,0,0,0,0,0,0,-1.7819,-1.7821,-1.7818,-1.7819,-1.7831,-1.784,-1.7842,-1.784,-1.7852,-1.7855,-1.7856,-1.7859,-1.7866,-1.7867,-1.7867,-1.7834,-1.7874,-1.7873,-1.7873,-1.7812,-1.781,-1.7809,0,0,0,0,0,0,-1.7819,-1.7818,-1.7817,-1.7821,-1.7821,-1.7839,-1.7836,-1.7839,-1.7839,-1.7854,-1.7858,-1.7852,-1.7867,-1.7867,-1.7853,-1.7834,-1.7873,-1.7872,-1.7813,-1.7811,-1.781,-1.7768,0,0,0,0,0,0,-1.7819,-1.7818,-1.7808,-1.782,-1.7821,-1.7803,-1.7835,-1.7839,-1.7838,-1.7841,-1.7851,-1.7854,-1.7868,-1.7853,-1.7852,-1.7834,-1.7872,-1.7815,-1.7812,-1.781,-1.7771,-1.7765,-1.776,0,0,0,0,0,-1.7819,-1.7795,-1.7807,-1.7806,-1.7809,-1.7802,-1.7803,-1.782,-1.7836,-1.7826,-1.7836,-1.7854,-1.7837,-1.7852,-1.785,-1.7832,-1.7816,-1.7813,-1.781,-1.7774,-1.7766,-1.776,0,0,0,0,0,0,-1.778,-1.7797,-1.781,-1.7791,-1.7795,-1.7809,-1.7796,-1.7812,-1.7811,-1.7814,-1.7836,-1.7837,-1.7819,-1.7825,-1.784,-1.7806,-1.783,-1.7826,-1.7802,-1.7795,-1.779,-1.7787,-1.7871,0,0,0,0,0,-1.7769,-1.7763,-1.7779,-1.776,-1.7761,-1.7778,-1.7776,-1.7789,-1.7794,-1.7796,-1.7805,-1.7808,-1.7804,-1.78,-1.7797,-1.7773,-1.7775,-1.776,-1.7754,-1.775,-1.7746,-1.7732,-1.7725,-1.7799,-1.7799,-1.7799,0,0,-1.7746,-1.7755,-1.775,-1.7752,-1.7757,-1.7749,-1.7779,-1.777,-1.7764,-1.7794,-1.778,-1.7787,-1.7793,-1.7772,-1.7764,-1.7776,-1.7726,-1.7746,-1.7742,-1.7741,-1.7728,-1.7721,-1.7714,-1.7797,-1.7798,-1.7798,0,0,-1.7701,-1.7708,-1.7692,-1.7696,-1.7703,-1.7715,-1.7711,-1.7723,-1.7728,-1.7715,-1.7737,-1.773,-1.7723,-1.7725,-1.7725,-1.7681,-1.7697,-1.768,-1.7649,-1.7635,-1.7629,-1.7624,-1.7606,-1.76,-1.7677,-1.7677,-1.7677,0,-1.7671,-1.7661,-1.7682,-1.7671,-1.767,-1.7698,-1.7682,-1.7685,-1.769,-1.7689,-1.7703,-1.7694,-1.77,-1.768,-1.7669,-1.7669,-1.7664,-1.7678,-1.7629,-1.7624,-1.7619,-1.7602,-1.7596,-1.7674,-1.7675,-1.7675,-1.7675,0,-1.7624,-1.7616,-1.7603,-1.7607,-1.7606,-1.7592,-1.761,-1.7606,-1.762,-1.763,-1.7615,-1.7623,-1.7622,-1.7619,-1.7632,-1.76,-1.7608,-1.7625,-1.7649,-1.7609,-1.7594,-1.7588,-1.7671,-1.7672,-1.7672,-1.7673,0,0,-1.7551,-1.7568,-1.7563,-1.7565,-1.7575,-1.7569,-1.7557,-1.7556,-1.7551,-1.7555,-1.7543,-1.7537,-1.7553,-1.7553,-1.7567,-1.7555,-1.7517,-1.7574,-1.7575,-1.7561,-1.7481,-1.7465,-1.7458,-1.7529,-1.7528,-1.7527,-1.7479,0,-1.7506,-1.7486,-1.7505,-1.748,-1.7473,-1.75,-1.7489,-1.7493,-1.7503,-1.7497,-1.7508,-1.7501,-1.7525,-1.7525,-1.7514,-1.7524,-1.7501,-1.7528,-1.7517,-1.7516,-1.7512,-1.745,-1.7434,-1.7388,-1.7474,-1.7473,-1.7472,0,-1.7451,-1.7451,-1.7426,-1.7437,-1.7435,-1.7424,-1.7424,-1.742,-1.7425,-1.7433,-1.7434,-1.7451,-1.7439,-1.7464,-1.7447,-1.7465,-1.7462,-1.7466,-1.7465,-1.7462,-1.749,-1.7443,-1.7374,-1.7366,-1.7463,-1.7464,-1.7464,0,-1.7397,-1.7392,-1.7376,-1.7378,-1.7391,-1.7383,-1.7388,-1.7395,-1.7393,-1.7393,-1.7392,-1.7391,-1.7389,-1.7388,-1.7404,-1.7422,-1.7384,-1.7411,-1.7388,-1.7387,-1.7376,-1.7376,-1.7303,-1.7379,-1.7379,-1.7379,-1.738,0,-1.7343,-1.7326,-1.7352,-1.7342,-1.7324,-1.7346,-1.7326,-1.7334,-1.7341,-1.7332,-1.7356,-1.7347,-1.737,-1.7364,-1.7377,-1.7359,-1.7359,-1.7364,-1.7366,-1.736,-1.7359,-1.7356,-1.7358,-1.7378,-1.7378,-1.7378,-1.7379,0,-1.728,-1.7297,-1.7281,-1.7295,-1.7298,-1.7283,-1.7295,-1.7286,-1.7298,-1.7286,-1.7285,-1.7302,-1.7296,-1.7313,-1.7309,-1.7317,-1.7291,-1.7301,-1.7289,-1.7291,-1.7266,-1.7267,-1.7186,-1.7176,-1.726,-1.726,-1.7259,0,-1.7242,-1.723,-1.7243,-1.7239,-1.7243,-1.7236,-1.7234,-1.7256,-1.7253,-1.7258,-1.7248,-1.7244,-1.7241,-1.7229,-1.7241,-1.7238,-1.7246,-1.7218,-1.7245,-1.7238,-1.7242,-1.7241,-1.7239,-1.7211,-1.721,-1.7209,-1.7209,0,-1.7174,-1.7183,-1.718,-1.7179,-1.7176,-1.7176,-1.7179,-1.7174,-1.7197,-1.7192,-1.7186,-1.7184,-1.718,-1.7174,-1.7174,-1.7179,-1.7196,-1.7201,-1.7194,-1.7186,-1.7178,-1.7179,-1.727,-1.7201,-1.7202,-1.7203,-1.7203,-1.7203,-1.7121,-1.711,-1.7117,-1.7113,-1.7117,-1.7118,-1.7109,-1.712,-1.7116,-1.7114,-1.7128,-1.7118,-1.7124,-1.7125,-1.7128,-1.712,-1.7133,-1.7125,-1.7122,-1.7119,-1.7114,-1.7182,-1.7121,-1.7121,-1.7121,-1.7121,-1.7122,0,-1.7051,-1.7057,-1.7053,-1.7055,-1.7051,-1.707,-1.7073,-1.7068,-1.706,-1.7064,-1.7061,-1.7053,-1.7048,-1.706,-1.7057,-1.7048,-1.7056,-1.7046,-1.7046,-1.7046,-1.7104,-1.7108,-1.704,-1.704,-1.704,-1.704,-1.704,-1.704,-1.7014,-1.6997,-1.7007,-1.6992,-1.6998,-1.6989,-1.6989,-1.699,-1.6994,-1.6984,-1.698,-1.6988,-1.6995,-1.6993,-1.6989,-1.6992,-1.6989,-1.6975,-1.6981,-1.7034,-1.7042,-1.705,-1.7054,-1.6975,-1.6975,-1.6924,-1.6923,-1.6923]}]]